| time (UTC) | temp C | wind direction | speed KPH | gust KPH | rain 1hr cm | rain 24hr cm | rain mn cm | humidity % | barometer mb |
| 20260504081859 | 39 | 183 | 9.7 | 59.5 | 0.00 | 1.55 | 0.00 | 30 | 1005.0 |
| 20260504081459 | 39 | 189 | 9.7 | 59.5 | 0.00 | 1.55 | 0.00 | 31 | 1005.0 |
| 20260504081259 | 39 | 191 | 8.0 | 59.5 | 0.00 | 1.55 | 0.00 | 31 | 1005.0 |
| 20260504081059 | 39 | 191 | 8.0 | 59.5 | 0.00 | 1.55 | 0.00 | 31 | 1005.0 |
| 20260504080859 | 39 | 191 | 8.0 | 59.5 | 0.00 | 1.55 | 0.00 | 31 | 1005.0 |
| 20260504080659 | 39 | 191 | 8.0 | 59.5 | 0.00 | 1.55 | 0.00 | 31 | 1005.0 |
| 20260504080459 | 39 | 191 | 8.0 | 59.5 | 0.00 | 1.55 | 0.00 | 31 | 1005.0 |
| 20260504080259 | 39 | 191 | 8.0 | 59.5 | 0.00 | 1.55 | 0.00 | 31 | 1005.0 |
| 20260504070259 | 38 | 253 | 6.4 | 61.2 | 0.00 | 0.36 | 1.37 | 32 | 1006.0 |
| 20260504060134 | 37 | 294 | 11.3 | 62.8 | 0.00 | 0.36 | 1.37 | 36 | 1008.0 |
| 20260504050647 | 35 | 288 | 16.1 | 62.8 | 0.00 | 0.36 | 1.37 | 42 | 1008.0 |
| 20260504050447 | 35 | 288 | 16.1 | 62.8 | 0.00 | 0.36 | 1.37 | 42 | 1008.0 |
| 20260504050247 | 35 | 288 | 16.1 | 62.8 | 0.00 | 0.36 | 1.37 | 42 | 1008.0 |
| 20260504045847 | 35 | 288 | 16.1 | 62.8 | 0.00 | 0.36 | 1.37 | 43 | 1008.0 |
| 20260504045647 | 35 | 288 | 16.1 | 62.8 | 0.00 | 0.36 | 1.37 | 43 | 1008.0 |
| 20260504045447 | 35 | 288 | 16.1 | 62.8 | 0.00 | 0.36 | 1.37 | 43 | 1008.0 |
| 20260504045247 | 35 | 288 | 16.1 | 62.8 | 0.00 | 0.36 | 1.37 | 43 | 1008.0 |
| 20260504045047 | 35 | 288 | 16.1 | 62.8 | 0.00 | 0.36 | 1.37 | 43 | 1008.0 |
| 20260504044647 | 35 | 288 | 16.1 | 62.8 | 0.00 | 0.36 | 1.37 | 43 | 1008.0 |
| 20260504044447 | 35 | 289 | 16.1 | 62.8 | 0.00 | 0.36 | 1.37 | 45 | 1009.0 |
| 20260504044247 | 35 | 289 | 16.1 | 62.8 | 0.00 | 0.36 | 1.37 | 45 | 1009.0 |
| 20260504044047 | 35 | 289 | 16.1 | 62.8 | 0.00 | 0.36 | 1.37 | 45 | 1009.0 |
| 20260504043847 | 35 | 289 | 16.1 | 62.8 | 0.00 | 0.36 | 1.37 | 45 | 1009.0 |
| 20260504043647 | 35 | 289 | 16.1 | 62.8 | 0.00 | 0.36 | 1.37 | 45 | 1009.0 |
| 20260504043447 | 35 | 289 | 16.1 | 62.8 | 0.00 | 0.36 | 1.37 | 45 | 1009.0 |
| 20260504043247 | 35 | 289 | 16.1 | 62.8 | 0.00 | 0.36 | 1.37 | 45 | 1009.0 |
| 20260504043047 | 35 | 289 | 16.1 | 62.8 | 0.00 | 0.36 | 1.37 | 45 | 1009.0 |
| 20260504042848 | 33 | 291 | 16.1 | 61.2 | 0.00 | 0.36 | 1.37 | 47 | 1009.0 |
| 20260504042447 | 33 | 291 | 16.1 | 61.2 | 0.00 | 0.36 | 1.37 | 47 | 1009.0 |
| 20260504042247 | 33 | 291 | 16.1 | 61.2 | 0.00 | 0.36 | 1.37 | 47 | 1009.0 |
| 20260504042047 | 33 | 291 | 16.1 | 61.2 | 0.00 | 0.36 | 1.37 | 47 | 1009.0 |
| 20260504041847 | 33 | 291 | 16.1 | 61.2 | 0.00 | 0.36 | 1.37 | 47 | 1009.0 |
| 20260504041647 | 33 | 291 | 16.1 | 61.2 | 0.00 | 0.36 | 1.37 | 47 | 1009.0 |
| 20260504041447 | 33 | 289 | 16.1 | 59.5 | 0.00 | 0.36 | 1.37 | 49 | 1009.0 |
| 20260504041247 | 33 | 289 | 16.1 | 59.5 | 0.00 | 0.36 | 1.37 | 49 | 1009.0 |
| 20260504041047 | 33 | 289 | 16.1 | 59.5 | 0.00 | 0.36 | 1.37 | 49 | 1009.0 |
| 20260504040847 | 33 | 289 | 16.1 | 59.5 | 0.00 | 0.36 | 1.37 | 49 | 1009.0 |
| 20260504040447 | 33 | 289 | 16.1 | 59.5 | 0.00 | 0.36 | 1.37 | 49 | 1009.0 |
| 20260504040247 | 33 | 289 | 16.1 | 59.5 | 0.00 | 0.36 | 1.37 | 49 | 1009.0 |
| 20260504040049 | 33 | 289 | 16.1 | 59.5 | 0.00 | 0.36 | 1.37 | 49 | 1009.0 |
| 20260504035847 | 33 | 286 | 16.1 | 57.9 | 0.00 | 0.36 | 1.37 | 51 | 1009.0 |
| 20260504035647 | 33 | 286 | 16.1 | 57.9 | 0.00 | 0.36 | 1.37 | 51 | 1009.0 |
| 20260504035447 | 33 | 286 | 16.1 | 57.9 | 0.00 | 0.36 | 1.37 | 51 | 1009.0 |
| 20260504035247 | 33 | 286 | 16.1 | 57.9 | 0.00 | 0.36 | 1.37 | 51 | 1009.0 |
| 20260504035047 | 33 | 286 | 16.1 | 57.9 | 0.00 | 0.36 | 1.37 | 51 | 1009.0 |
| 20260504034847 | 33 | 286 | 16.1 | 57.9 | 0.00 | 0.36 | 1.37 | 51 | 1009.0 |
| 20260504034648 | 33 | 286 | 16.1 | 57.9 | 0.00 | 0.36 | 1.37 | 51 | 1009.0 |
| 20260504034247 | 32 | 281 | 14.5 | 54.7 | 0.00 | 0.36 | 1.37 | 53 | 1009.0 |
| 20260504034047 | 32 | 281 | 14.5 | 54.7 | 0.00 | 0.36 | 1.37 | 53 | 1009.0 |
| 20260504033847 | 32 | 281 | 14.5 | 54.7 | 0.00 | 0.36 | 1.37 | 53 | 1009.0 |
| 20260504033647 | 32 | 281 | 14.5 | 54.7 | 0.00 | 0.36 | 1.37 | 53 | 1009.0 |
| 20260504033447 | 32 | 281 | 14.5 | 54.7 | 0.00 | 0.36 | 1.37 | 53 | 1009.0 |
| 20260504033247 | 32 | 281 | 14.5 | 54.7 | 0.00 | 0.36 | 1.37 | 53 | 1009.0 |
| 20260504033047 | 32 | 281 | 14.5 | 54.7 | 0.00 | 0.36 | 1.37 | 53 | 1009.0 |
| 20260504032847 | 32 | 275 | 12.9 | 49.9 | 0.00 | 0.36 | 1.37 | 55 | 1009.0 |
| 20260504032647 | 32 | 275 | 12.9 | 49.9 | 0.00 | 0.36 | 1.37 | 55 | 1009.0 |
| 20260504032247 | 32 | 275 | 12.9 | 49.9 | 0.00 | 0.36 | 1.37 | 55 | 1009.0 |
| 20260504032047 | 32 | 275 | 12.9 | 49.9 | 0.00 | 0.36 | 1.37 | 55 | 1009.0 |
| 20260504031847 | 32 | 275 | 12.9 | 49.9 | 0.00 | 0.36 | 1.37 | 55 | 1009.0 |
| 20260504031647 | 32 | 275 | 12.9 | 49.9 | 0.00 | 0.36 | 1.37 | 55 | 1009.0 |
| 20260504031447 | 31 | 270 | 11.3 | 46.7 | 0.00 | 0.36 | 1.37 | 58 | 1009.0 |
| 20260504031247 | 31 | 270 | 11.3 | 46.7 | 0.00 | 0.36 | 1.37 | 58 | 1009.0 |
| 20260504031047 | 31 | 270 | 11.3 | 46.7 | 0.00 | 0.36 | 1.37 | 58 | 1009.0 |
| 20260504030847 | 31 | 270 | 11.3 | 46.7 | 0.00 | 0.36 | 1.37 | 58 | 1009.0 |
| 20260504030647 | 31 | 270 | 11.3 | 46.7 | 0.00 | 0.36 | 1.37 | 58 | 1009.0 |
| 20260504030447 | 31 | 270 | 11.3 | 46.7 | 0.00 | 0.36 | 1.37 | 58 | 1009.0 |
| 20260504030049 | 31 | 270 | 11.3 | 46.7 | 0.00 | 0.36 | 1.37 | 58 | 1009.0 |
| 20260504025847 | 31 | 276 | 9.7 | 43.5 | 0.00 | 0.36 | 1.37 | 60 | 1009.0 |
| 20260504025647 | 31 | 276 | 9.7 | 43.5 | 0.00 | 0.36 | 1.37 | 60 | 1009.0 |
| 20260504025447 | 31 | 276 | 9.7 | 43.5 | 0.00 | 0.36 | 1.37 | 60 | 1009.0 |
| 20260504025247 | 31 | 276 | 9.7 | 43.5 | 0.00 | 0.36 | 1.37 | 60 | 1009.0 |
| 20260504025047 | 31 | 276 | 9.7 | 43.5 | 0.00 | 0.36 | 1.37 | 60 | 1009.0 |
| 20260504024847 | 31 | 276 | 9.7 | 43.5 | 0.00 | 0.36 | 1.37 | 60 | 1009.0 |
| 20260504024647 | 31 | 276 | 9.7 | 43.5 | 0.00 | 0.36 | 1.37 | 60 | 1009.0 |
| 20260504024447 | 30 | 283 | 9.7 | 41.8 | 0.00 | 0.36 | 1.37 | 62 | 1009.0 |
| 20260504024247 | 30 | 283 | 9.7 | 41.8 | 0.00 | 0.36 | 1.37 | 62 | 1009.0 |
| 20260504023847 | 30 | 283 | 9.7 | 41.8 | 0.00 | 0.36 | 1.37 | 62 | 1009.0 |
| 20260504023647 | 30 | 283 | 9.7 | 41.8 | 0.00 | 0.36 | 1.37 | 62 | 1009.0 |
| 20260504023447 | 30 | 283 | 9.7 | 41.8 | 0.00 | 0.36 | 1.37 | 62 | 1009.0 |
| 20260504023247 | 30 | 283 | 9.7 | 41.8 | 0.00 | 0.36 | 1.37 | 62 | 1009.0 |
| 20260504023047 | 30 | 283 | 9.7 | 41.8 | 0.00 | 0.36 | 1.37 | 62 | 1009.0 |
| 20260504022847 | 30 | 292 | 8.0 | 38.6 | 0.00 | 0.36 | 1.37 | 65 | 1008.0 |
| 20260504022647 | 30 | 292 | 8.0 | 38.6 | 0.00 | 0.36 | 1.37 | 65 | 1008.0 |
| 20260504022447 | 30 | 292 | 8.0 | 38.6 | 0.00 | 0.36 | 1.37 | 65 | 1008.0 |
| 20260504022247 | 30 | 292 | 8.0 | 38.6 | 0.00 | 0.36 | 1.37 | 65 | 1008.0 |
| 20260504022049 | 30 | 292 | 8.0 | 38.6 | 0.00 | 0.36 | 1.37 | 65 | 1008.0 |
| 20260504021651 | 30 | 292 | 8.0 | 38.6 | 0.00 | 0.36 | 1.37 | 65 | 1008.0 |
| 20260504021451 | 29 | 298 | 8.0 | 33.8 | 0.00 | 0.36 | 1.37 | 68 | 1008.0 |
| 20260504021251 | 29 | 298 | 8.0 | 33.8 | 0.00 | 0.36 | 1.37 | 68 | 1008.0 |
| 20260504021051 | 29 | 298 | 8.0 | 33.8 | 0.00 | 0.36 | 1.37 | 68 | 1008.0 |
| 20260504020852 | 29 | 298 | 8.0 | 33.8 | 0.00 | 0.36 | 1.37 | 68 | 1008.0 |
| 20260504020451 | 29 | 298 | 8.0 | 33.8 | 0.00 | 0.36 | 1.37 | 68 | 1008.0 |
| 20260504020251 | 29 | 298 | 8.0 | 33.8 | 0.00 | 0.36 | 1.37 | 68 | 1008.0 |
| 20260504020052 | 29 | 298 | 8.0 | 33.8 | 0.00 | 0.36 | 1.37 | 68 | 1008.0 |
| 20260504015851 | 28 | 297 | 6.4 | 29.0 | 0.00 | 0.36 | 1.37 | 68 | 1008.0 |
| 20260504015651 | 28 | 297 | 6.4 | 29.0 | 0.00 | 0.36 | 1.37 | 68 | 1008.0 |
| 20260504015451 | 28 | 297 | 6.4 | 29.0 | 0.00 | 0.36 | 1.37 | 68 | 1008.0 |
| 20260504015251 | 28 | 297 | 6.4 | 29.0 | 0.00 | 0.36 | 1.37 | 68 | 1008.0 |
| 20260504015051 | 28 | 297 | 6.4 | 29.0 | 0.00 | 0.36 | 1.37 | 68 | 1008.0 |
| 20260504014852 | 28 | 297 | 6.4 | 29.0 | 0.00 | 0.36 | 1.37 | 68 | 1008.0 |
| 20260504014451 | 28 | 288 | 6.4 | 19.3 | 0.00 | 0.36 | 1.37 | 70 | 1008.0 |
| 20260504014251 | 28 | 288 | 6.4 | 19.3 | 0.00 | 0.36 | 1.37 | 70 | 1008.0 |
| 20260504014051 | 28 | 288 | 6.4 | 19.3 | 0.00 | 0.36 | 1.37 | 70 | 1008.0 |
| 20260504013851 | 28 | 288 | 6.4 | 19.3 | 0.00 | 0.36 | 1.37 | 70 | 1008.0 |
| 20260504013651 | 28 | 288 | 6.4 | 19.3 | 0.00 | 0.36 | 1.37 | 70 | 1008.0 |
| 20260504013452 | 28 | 288 | 6.4 | 19.3 | 0.00 | 0.36 | 1.37 | 70 | 1008.0 |
| 20260504013251 | 28 | 288 | 6.4 | 19.3 | 0.00 | 0.36 | 1.37 | 70 | 1008.0 |
| 20260504013051 | 28 | 288 | 6.4 | 19.3 | 0.00 | 0.36 | 1.37 | 70 | 1008.0 |
| 20260504012851 | 28 | 280 | 4.8 | 11.3 | 0.00 | 0.36 | 1.37 | 71 | 1008.0 |
| 20260504012451 | 28 | 280 | 4.8 | 11.3 | 0.00 | 0.36 | 1.37 | 71 | 1008.0 |
| 20260504012256 | 28 | 280 | 4.8 | 11.3 | 0.00 | 0.36 | 1.37 | 71 | 1008.0 |
| 20260504012051 | 28 | 280 | 4.8 | 11.3 | 0.00 | 0.36 | 1.37 | 71 | 1008.0 |
| 20260504011851 | 28 | 280 | 4.8 | 11.3 | 0.00 | 0.36 | 1.37 | 71 | 1008.0 |
| 20260504011651 | 28 | 280 | 4.8 | 11.3 | 0.00 | 0.36 | 1.37 | 71 | 1008.0 |
| 20260504011451 | 28 | 270 | 4.8 | 6.4 | 0.00 | 0.36 | 1.37 | 72 | 1008.0 |
| 20260504011251 | 28 | 270 | 4.8 | 6.4 | 0.00 | 0.36 | 1.37 | 72 | 1008.0 |
| 20260504011051 | 28 | 270 | 4.8 | 6.4 | 0.00 | 0.36 | 1.37 | 72 | 1008.0 |
| 20260504010851 | 28 | 235 | 6.4 | 6.4 | 0.00 | 0.36 | 1.37 | 72 | 1008.0 |
| 20260504010651 | 28 | 235 | 6.4 | 6.4 | 0.00 | 0.36 | 1.37 | 72 | 1008.0 |
| 20260504010251 | 28 | 238 | 6.4 | 6.4 | 0.00 | 0.36 | 1.37 | 72 | 1008.0 |
| 20260504010052 | 28 | 238 | 6.4 | 6.4 | 0.00 | 0.36 | 1.37 | 72 | 1008.0 |
| 20260504005851 | 28 | 232 | 6.4 | 6.4 | 0.00 | 0.36 | 1.37 | 72 | 1008.0 |
| 20260504005651 | 28 | 232 | 6.4 | 14.5 | 0.00 | 0.36 | 1.37 | 72 | 1008.0 |
| 20260504005451 | 28 | 232 | 6.4 | 14.5 | 0.00 | 0.36 | 1.37 | 72 | 1008.0 |
| 20260504005251 | 28 | 232 | 6.4 | 14.5 | 0.00 | 0.36 | 1.37 | 72 | 1008.0 |
| 20260504005051 | 28 | 232 | 6.4 | 14.5 | 0.00 | 0.36 | 1.37 | 72 | 1008.0 |
| 20260504004851 | 28 | 232 | 6.4 | 14.5 | 0.00 | 0.36 | 1.37 | 72 | 1008.0 |
| 20260504004651 | 28 | 232 | 6.4 | 14.5 | 0.00 | 0.36 | 1.37 | 72 | 1008.0 |
| 20260504004452 | 28 | 225 | 4.8 | 14.5 | 0.00 | 0.36 | 1.37 | 72 | 1008.0 |
| 20260504004051 | 27 | 225 | 4.8 | 14.5 | 0.00 | 0.36 | 1.37 | 73 | 1008.0 |
| 20260504003852 | 27 | 225 | 4.8 | 14.5 | 0.00 | 0.36 | 1.37 | 73 | 1008.0 |
| 20260504003651 | 27 | 225 | 4.8 | 14.5 | 0.00 | 0.36 | 1.37 | 73 | 1008.0 |
| 20260504003451 | 27 | 225 | 4.8 | 14.5 | 0.00 | 0.36 | 1.37 | 73 | 1008.0 |
| 20260504003252 | 27 | 225 | 4.8 | 14.5 | 0.00 | 0.36 | 1.37 | 73 | 1008.0 |
| 20260504003051 | 27 | 225 | 4.8 | 14.5 | 0.00 | 0.36 | 1.37 | 73 | 1008.0 |
| 20260504002852 | 27 | 210 | 3.2 | 14.5 | 0.00 | 0.36 | 1.37 | 73 | 1007.0 |
| 20260504002651 | 27 | 210 | 3.2 | 14.5 | 0.00 | 0.36 | 1.37 | 73 | 1007.0 |
| 20260504002451 | 27 | 210 | 3.2 | 14.5 | 0.00 | 0.36 | 1.37 | 73 | 1007.0 |
| 20260504002051 | 27 | 210 | 3.2 | 14.5 | 0.00 | 0.36 | 1.37 | 73 | 1007.0 |
| 20260504001851 | 27 | 210 | 3.2 | 14.5 | 0.00 | 0.36 | 1.37 | 73 | 1007.0 |
| 20260504001651 | 27 | 210 | 3.2 | 14.5 | 0.00 | 0.36 | 1.37 | 73 | 1007.0 |
| 20260504001451 | 27 | 201 | 3.2 | 14.5 | 0.00 | 0.36 | 0.08 | 73 | 1007.0 |
| 20260504001251 | 27 | 201 | 3.2 | 14.5 | 0.00 | 0.36 | 0.08 | 73 | 1007.0 |
| 20260504001051 | 27 | 201 | 3.2 | 14.5 | 0.00 | 0.36 | 0.08 | 73 | 1007.0 |
| 20260504000851 | 27 | 201 | 3.2 | 14.5 | 0.00 | 0.36 | 0.08 | 72 | 1007.0 |
| 20260504000651 | 27 | 201 | 3.2 | 14.5 | 0.00 | 0.36 | 0.08 | 72 | 1007.0 |
| 20260504000451 | 27 | 201 | 3.2 | 14.5 | 0.00 | 0.36 | 0.08 | 72 | 1007.0 |
| 20260504000053 | 27 | 201 | 3.2 | 14.5 | 0.00 | 0.36 | 0.08 | 72 | 1007.0 |
| 20260503235851 | 27 | 209 | 4.8 | 16.1 | 0.00 | 0.36 | 0.08 | 71 | 1007.0 |
| 20260503235651 | 27 | 209 | 4.8 | 16.1 | 0.00 | 0.36 | 0.08 | 71 | 1007.0 |
| 20260503235451 | 27 | 209 | 4.8 | 16.1 | 0.00 | 0.36 | 0.08 | 71 | 1007.0 |
| 20260503235251 | 27 | 209 | 4.8 | 16.1 | 0.00 | 0.36 | 0.08 | 71 | 1007.0 |
| 20260503235051 | 27 | 209 | 4.8 | 16.1 | 0.00 | 0.36 | 0.08 | 71 | 1007.0 |
| 20260503234851 | 27 | 209 | 4.8 | 16.1 | 0.00 | 0.36 | 0.08 | 71 | 1007.0 |
| 20260503234651 | 27 | 209 | 4.8 | 16.1 | 0.00 | 0.36 | 0.08 | 71 | 1007.0 |
| 20260503234451 | 27 | 215 | 6.4 | 17.7 | 0.00 | 0.36 | 0.08 | 70 | 1007.0 |
| 20260503234251 | 27 | 215 | 6.4 | 17.7 | 0.00 | 0.36 | 0.08 | 70 | 1007.0 |
| 20260503233851 | 27 | 215 | 6.4 | 17.7 | 0.00 | 0.36 | 0.08 | 70 | 1007.0 |
| 20260503233652 | 27 | 215 | 6.4 | 17.7 | 0.00 | 0.36 | 0.08 | 70 | 1007.0 |
| 20260503233452 | 27 | 215 | 6.4 | 17.7 | 0.00 | 0.36 | 0.08 | 70 | 1007.0 |
| 20260503233252 | 27 | 215 | 6.4 | 17.7 | 0.00 | 0.36 | 0.08 | 70 | 1007.0 |
| 20260503233052 | 27 | 215 | 6.4 | 17.7 | 0.00 | 0.36 | 0.08 | 70 | 1007.0 |
| 20260503232851 | 28 | 222 | 8.0 | 20.9 | 0.00 | 0.36 | 0.08 | 70 | 1007.0 |
| 20260503232651 | 28 | 222 | 8.0 | 20.9 | 0.00 | 0.36 | 0.08 | 70 | 1007.0 |
| 20260503232452 | 28 | 222 | 8.0 | 20.9 | 0.00 | 0.36 | 0.08 | 70 | 1007.0 |
| 20260503232251 | 28 | 222 | 8.0 | 20.9 | 0.00 | 0.36 | 0.08 | 70 | 1007.0 |
| 20260503232052 | 28 | 222 | 8.0 | 20.9 | 0.00 | 0.36 | 0.08 | 70 | 1007.0 |
| 20260503231651 | 28 | 222 | 8.0 | 20.9 | 0.00 | 0.36 | 0.08 | 70 | 1007.0 |
| 20260503231451 | 28 | 220 | 9.7 | 22.5 | 0.00 | 0.36 | 0.08 | 68 | 1007.0 |
| 20260503231251 | 28 | 220 | 9.7 | 22.5 | 0.00 | 0.36 | 0.08 | 68 | 1007.0 |
| 20260503231051 | 28 | 220 | 9.7 | 22.5 | 0.00 | 0.36 | 0.08 | 68 | 1007.0 |
| 20260503230851 | 28 | 220 | 9.7 | 22.5 | 0.00 | 0.36 | 0.08 | 68 | 1007.0 |
| 20260503230651 | 28 | 220 | 9.7 | 22.5 | 0.00 | 0.36 | 0.08 | 68 | 1007.0 |
| 20260503230451 | 28 | 220 | 9.7 | 22.5 | 0.00 | 0.36 | 0.08 | 68 | 1007.0 |
| 20260503230251 | 28 | 220 | 9.7 | 22.5 | 0.00 | 0.36 | 0.08 | 68 | 1007.0 |
| 20260503230052 | 28 | 220 | 9.7 | 22.5 | 0.00 | 0.36 | 0.08 | 68 | 1007.0 |
| 20260503225852 | 28 | 214 | 9.7 | 24.1 | 0.00 | 0.36 | 0.08 | 68 | 1007.0 |
| 20260503225452 | 28 | 214 | 9.7 | 24.1 | 0.00 | 0.36 | 0.08 | 68 | 1007.0 |
| 20260503225252 | 28 | 214 | 9.7 | 24.1 | 0.00 | 0.36 | 0.08 | 68 | 1007.0 |
| 20260503225052 | 28 | 214 | 9.7 | 24.1 | 0.00 | 0.36 | 0.08 | 68 | 1007.0 |
| 20260503224852 | 28 | 214 | 9.7 | 24.1 | 0.00 | 0.36 | 0.08 | 68 | 1007.0 |
| 20260503224651 | 28 | 214 | 9.7 | 24.1 | 0.00 | 0.36 | 0.08 | 68 | 1007.0 |
| 20260503224451 | 28 | 207 | 9.7 | 25.7 | 0.00 | 0.36 | 0.08 | 67 | 1007.0 |
| 20260503224252 | 28 | 207 | 9.7 | 25.7 | 0.00 | 0.36 | 0.08 | 67 | 1007.0 |
| 20260503224052 | 28 | 207 | 9.7 | 25.7 | 0.00 | 0.36 | 0.08 | 67 | 1007.0 |
| 20260503223852 | 28 | 207 | 9.7 | 25.7 | 0.00 | 0.36 | 0.08 | 67 | 1007.0 |
| 20260503223653 | 28 | 207 | 9.7 | 25.7 | 0.00 | 0.36 | 0.08 | 67 | 1007.0 |
| 20260503223252 | 28 | 207 | 9.7 | 25.7 | 0.00 | 0.36 | 0.08 | 67 | 1007.0 |
| 20260503223052 | 28 | 207 | 9.7 | 25.7 | 0.00 | 0.36 | 0.08 | 67 | 1007.0 |
| 20260503222852 | 28 | 198 | 11.3 | 27.4 | 0.00 | 0.36 | 0.08 | 66 | 1007.0 |
| 20260503222652 | 28 | 198 | 11.3 | 27.4 | 0.00 | 0.36 | 0.08 | 66 | 1007.0 |
| 20260503222452 | 28 | 198 | 11.3 | 27.4 | 0.00 | 0.36 | 0.08 | 66 | 1007.0 |
| 20260503222252 | 28 | 198 | 11.3 | 27.4 | 0.00 | 0.36 | 0.08 | 66 | 1007.0 |
| 20260503222052 | 28 | 198 | 11.3 | 27.4 | 0.00 | 0.36 | 0.08 | 66 | 1007.0 |
| 20260503221852 | 28 | 198 | 11.3 | 27.4 | 0.00 | 0.36 | 0.08 | 66 | 1007.0 |
| 20260503221652 | 28 | 198 | 11.3 | 27.4 | 0.00 | 0.36 | 0.08 | 66 | 1007.0 |
| 20260503221452 | 28 | 192 | 12.9 | 29.0 | 0.00 | 0.36 | 0.08 | 65 | 1007.0 |
| 20260503221052 | 28 | 192 | 12.9 | 29.0 | 0.00 | 0.36 | 0.08 | 65 | 1007.0 |
| 20260503220851 | 28 | 192 | 12.9 | 29.0 | 0.00 | 0.36 | 0.08 | 65 | 1007.0 |
| 20260503220651 | 28 | 192 | 12.9 | 29.0 | 0.00 | 0.36 | 0.08 | 65 | 1007.0 |
| 20260503220451 | 28 | 192 | 12.9 | 29.0 | 0.00 | 0.36 | 0.08 | 65 | 1007.0 |
| 20260503220251 | 28 | 192 | 12.9 | 29.0 | 0.00 | 0.36 | 0.08 | 65 | 1007.0 |
| 20260503220054 | 28 | 192 | 12.9 | 29.0 | 0.00 | 0.36 | 0.08 | 65 | 1007.0 |
| 20260503215851 | 28 | 185 | 12.9 | 29.0 | 0.00 | 0.36 | 0.08 | 65 | 1007.0 |
| 20260503215652 | 28 | 185 | 12.9 | 29.0 | 0.00 | 0.36 | 0.08 | 65 | 1007.0 |
| 20260503215451 | 28 | 185 | 12.9 | 29.0 | 0.00 | 0.36 | 0.08 | 65 | 1007.0 |
| 20260503215052 | 28 | 185 | 12.9 | 29.0 | 0.00 | 0.36 | 0.08 | 65 | 1007.0 |
| 20260503214852 | 28 | 185 | 12.9 | 29.0 | 0.00 | 0.36 | 0.08 | 65 | 1007.0 |
| 20260503214652 | 28 | 185 | 12.9 | 29.0 | 0.00 | 0.36 | 0.08 | 65 | 1007.0 |
| 20260503214452 | 28 | 176 | 14.5 | 29.0 | 0.00 | 0.36 | 0.08 | 64 | 1007.0 |
| 20260503214252 | 28 | 176 | 14.5 | 29.0 | 0.00 | 0.36 | 0.08 | 64 | 1007.0 |
| 20260503214054 | 28 | 176 | 14.5 | 29.0 | 0.00 | 0.36 | 0.08 | 64 | 1007.0 |
| 20260503213852 | 28 | 176 | 14.5 | 29.0 | 0.00 | 0.36 | 0.08 | 64 | 1007.0 |
| 20260503213652 | 28 | 176 | 14.5 | 29.0 | 0.00 | 0.36 | 0.08 | 64 | 1007.0 |
| 20260503213452 | 28 | 176 | 14.5 | 29.0 | 0.00 | 0.36 | 0.08 | 64 | 1007.0 |
| 20260503213256 | 28 | 176 | 14.5 | 29.0 | 0.00 | 0.36 | 0.08 | 64 | 1007.0 |
| 20260503213052 | 28 | 176 | 14.5 | 29.0 | 0.00 | 0.36 | 0.08 | 64 | 1007.0 |
| 20260503212852 | 28 | 167 | 14.5 | 29.0 | 0.00 | 0.36 | 0.08 | 64 | 1007.0 |
| 20260503212652 | 28 | 167 | 14.5 | 29.0 | 0.00 | 0.36 | 0.08 | 64 | 1007.0 |
| 20260503212452 | 28 | 167 | 14.5 | 29.0 | 0.00 | 0.36 | 0.08 | 64 | 1007.0 |
| 20260503212252 | 28 | 167 | 14.5 | 29.0 | 0.00 | 0.36 | 0.08 | 64 | 1007.0 |
| 20260503212052 | 28 | 167 | 14.5 | 29.0 | 0.00 | 0.36 | 0.08 | 64 | 1007.0 |
| 20260503211852 | 28 | 167 | 14.5 | 29.0 | 0.00 | 0.36 | 0.08 | 64 | 1007.0 |
| 20260503211653 | 28 | 167 | 14.5 | 29.0 | 0.00 | 0.36 | 0.08 | 64 | 1007.0 |
| 20260503211252 | 29 | 163 | 14.5 | 29.0 | 0.00 | 0.36 | 0.08 | 63 | 1007.0 |
| 20260503211052 | 29 | 163 | 14.5 | 29.0 | 0.00 | 0.36 | 0.08 | 63 | 1007.0 |
| 20260503210852 | 29 | 163 | 14.5 | 29.0 | 0.00 | 0.36 | 0.08 | 63 | 1007.0 |
| 20260503210652 | 29 | 163 | 14.5 | 29.0 | 0.00 | 0.36 | 0.08 | 63 | 1007.0 |
| 20260503210454 | 29 | 163 | 14.5 | 29.0 | 0.00 | 0.36 | 0.08 | 63 | 1007.0 |
| 20260503210252 | 29 | 163 | 14.5 | 29.0 | 0.00 | 0.36 | 0.08 | 63 | 1007.0 |
| 20260503210053 | 29 | 163 | 14.5 | 29.0 | 0.00 | 0.36 | 0.08 | 63 | 1007.0 |
| 20260503205852 | 29 | 164 | 12.9 | 25.7 | 0.00 | 0.36 | 0.08 | 63 | 1007.0 |
| 20260503205652 | 29 | 164 | 12.9 | 25.7 | 0.00 | 0.36 | 0.08 | 63 | 1007.0 |
| 20260503205252 | 29 | 164 | 12.9 | 25.7 | 0.00 | 0.36 | 0.08 | 63 | 1007.0 |
| 20260503205052 | 29 | 164 | 12.9 | 25.7 | 0.00 | 0.36 | 0.08 | 63 | 1007.0 |
| 20260503204852 | 29 | 164 | 12.9 | 25.7 | 0.00 | 0.36 | 0.08 | 63 | 1007.0 |
| 20260503204652 | 29 | 164 | 12.9 | 25.7 | 0.00 | 0.36 | 0.08 | 63 | 1007.0 |
| 20260503204452 | 29 | 162 | 9.7 | 20.9 | 0.00 | 0.36 | 0.08 | 63 | 1007.0 |
| 20260503204252 | 29 | 162 | 9.7 | 20.9 | 0.00 | 0.36 | 0.08 | 63 | 1007.0 |
| 20260503204052 | 29 | 162 | 9.7 | 20.9 | 0.00 | 0.36 | 0.08 | 63 | 1007.0 |
| 20260503203852 | 29 | 162 | 9.7 | 20.9 | 0.00 | 0.36 | 0.08 | 63 | 1007.0 |
| 20260503203652 | 29 | 162 | 9.7 | 20.9 | 0.00 | 0.36 | 0.08 | 63 | 1007.0 |
| 20260503203252 | 29 | 162 | 9.7 | 20.9 | 0.00 | 0.36 | 0.08 | 63 | 1007.0 |
| 20260503203052 | 29 | 162 | 9.7 | 20.9 | 0.00 | 0.36 | 0.08 | 63 | 1007.0 |
| 20260503202852 | 29 | 163 | 6.4 | 17.7 | 0.00 | 0.36 | 0.08 | 63 | 1007.0 |
| 20260503202652 | 29 | 163 | 6.4 | 17.7 | 0.00 | 0.36 | 0.08 | 63 | 1007.0 |
| 20260503202452 | 29 | 163 | 6.4 | 17.7 | 0.00 | 0.36 | 0.08 | 63 | 1007.0 |
| 20260503202252 | 29 | 163 | 6.4 | 17.7 | 0.00 | 0.36 | 0.08 | 63 | 1007.0 |
| 20260503202052 | 29 | 163 | 6.4 | 17.7 | 0.00 | 0.36 | 0.08 | 63 | 1007.0 |
| 20260503201852 | 29 | 163 | 6.4 | 17.7 | 0.00 | 0.36 | 0.08 | 63 | 1007.0 |
| 20260503201652 | 29 | 163 | 6.4 | 17.7 | 0.00 | 0.36 | 0.08 | 63 | 1007.0 |
| 20260503201453 | 29 | 167 | 4.8 | 16.1 | 0.00 | 0.36 | 0.08 | 63 | 1008.0 |
| 20260503201052 | 29 | 167 | 4.8 | 16.1 | 0.00 | 0.36 | 0.08 | 63 | 1008.0 |
| 20260503200852 | 29 | 167 | 4.8 | 16.1 | 0.00 | 0.36 | 0.08 | 63 | 1008.0 |
| 20260503200652 | 29 | 167 | 4.8 | 16.1 | 0.00 | 0.36 | 0.08 | 63 | 1008.0 |
| 20260503200452 | 29 | 167 | 4.8 | 16.1 | 0.00 | 0.36 | 0.08 | 63 | 1008.0 |
| 20260503200252 | 29 | 167 | 4.8 | 16.1 | 0.00 | 0.36 | 0.08 | 63 | 1008.0 |
| 20260503200052 | 29 | 167 | 4.8 | 16.1 | 0.00 | 0.36 | 0.08 | 63 | 1008.0 |
| 20260503195852 | 29 | 189 | 3.2 | 19.3 | 0.00 | 0.36 | 0.08 | 63 | 1008.0 |
| 20260503195652 | 29 | 189 | 3.2 | 19.3 | 0.00 | 0.36 | 0.08 | 63 | 1008.0 |
| 20260503195452 | 29 | 189 | 3.2 | 19.3 | 0.00 | 0.36 | 0.08 | 63 | 1008.0 |
| 20260503195052 | 29 | 189 | 3.2 | 19.3 | 0.00 | 0.36 | 0.08 | 63 | 1008.0 |
| 20260503194852 | 29 | 189 | 3.2 | 19.3 | 0.00 | 0.36 | 0.08 | 63 | 1008.0 |
| 20260503194652 | 29 | 189 | 3.2 | 19.3 | 0.00 | 0.36 | 0.08 | 63 | 1008.0 |
| 20260503194452 | 30 | 259 | 1.6 | 24.1 | 0.00 | 0.36 | 0.08 | 62 | 1008.0 |
| 20260503194252 | 30 | 259 | 1.6 | 24.1 | 0.00 | 0.36 | 0.08 | 62 | 1008.0 |
| 20260503194052 | 30 | 259 | 1.6 | 24.1 | 0.00 | 0.36 | 0.08 | 62 | 1008.0 |
| 20260503193852 | 30 | 259 | 1.6 | 24.1 | 0.00 | 0.36 | 0.08 | 62 | 1008.0 |
| 20260503193652 | 30 | 259 | 1.6 | 24.1 | 0.00 | 0.36 | 0.08 | 62 | 1008.0 |
| 20260503193452 | 30 | 259 | 1.6 | 24.1 | 0.00 | 0.36 | 0.08 | 62 | 1008.0 |
| 20260503193253 | 30 | 259 | 1.6 | 24.1 | 0.00 | 0.36 | 0.08 | 62 | 1008.0 |
| 20260503192852 | 30 | 281 | 4.8 | 29.0 | 0.00 | 0.36 | 0.08 | 62 | 1008.0 |
| 20260503192652 | 30 | 281 | 4.8 | 29.0 | 0.00 | 0.36 | 0.08 | 62 | 1008.0 |
| 20260503192452 | 30 | 281 | 4.8 | 29.0 | 0.00 | 0.36 | 0.08 | 62 | 1008.0 |
| 20260503192252 | 30 | 222 | 8.0 | 29.0 | 0.00 | 0.36 | 0.08 | 62 | 1008.0 |
| 20260503192052 | 30 | 222 | 8.0 | 29.0 | 0.00 | 0.36 | 0.08 | 62 | 1008.0 |
| 20260503191852 | 30 | 222 | 8.0 | 29.0 | 0.00 | 0.36 | 0.08 | 62 | 1008.0 |
| 20260503191652 | 30 | 222 | 8.0 | 29.0 | 0.00 | 0.36 | 0.08 | 62 | 1008.0 |
| 20260503191452 | 30 | 227 | 9.7 | 32.2 | 0.00 | 0.36 | 0.08 | 62 | 1008.0 |
| 20260503191252 | 30 | 227 | 9.7 | 32.2 | 0.00 | 0.36 | 0.08 | 62 | 1008.0 |
| 20260503190852 | 30 | 227 | 9.7 | 32.2 | 0.00 | 0.36 | 0.08 | 62 | 1008.0 |
| 20260503190652 | 30 | 227 | 9.7 | 32.2 | 0.00 | 0.36 | 0.08 | 62 | 1008.0 |
| 20260503190452 | 30 | 227 | 9.7 | 32.2 | 0.00 | 0.36 | 0.08 | 62 | 1008.0 |
| 20260503190252 | 30 | 227 | 9.7 | 32.2 | 0.00 | 0.36 | 0.08 | 62 | 1008.0 |
| 20260503190053 | 30 | 227 | 9.7 | 32.2 | 0.00 | 0.36 | 0.08 | 62 | 1008.0 |
| 20260503185852 | 30 | 223 | 11.3 | 38.6 | 0.00 | 0.30 | 0.00 | 61 | 1008.0 |
| 20260503185652 | 30 | 223 | 11.3 | 38.6 | 0.00 | 0.30 | 0.00 | 61 | 1008.0 |
| 20260503185452 | 30 | 223 | 11.3 | 38.6 | 0.00 | 0.30 | 0.00 | 61 | 1008.0 |
| 20260503185252 | 30 | 223 | 11.3 | 38.6 | 0.00 | 0.30 | 0.00 | 61 | 1008.0 |
| 20260503184852 | 30 | 223 | 11.3 | 38.6 | 0.00 | 0.30 | 0.00 | 61 | 1008.0 |
| 20260503184652 | 30 | 223 | 11.3 | 38.6 | 0.00 | 0.30 | 0.00 | 61 | 1008.0 |
| 20260503184452 | 30 | 219 | 12.9 | 45.1 | 0.00 | 0.30 | 0.00 | 60 | 1008.0 |
| 20260503184252 | 30 | 219 | 12.9 | 45.1 | 0.00 | 0.30 | 0.00 | 60 | 1008.0 |
| 20260503184052 | 30 | 219 | 12.9 | 45.1 | 0.00 | 0.30 | 0.00 | 60 | 1008.0 |
| 20260503183852 | 30 | 219 | 12.9 | 45.1 | 0.00 | 0.30 | 0.00 | 60 | 1008.0 |
| 20260503183652 | 30 | 219 | 12.9 | 45.1 | 0.00 | 0.38 | 0.00 | 60 | 1008.0 |
| 20260503183452 | 30 | 219 | 12.9 | 45.1 | 0.00 | 0.38 | 0.00 | 60 | 1008.0 |
| 20260503183252 | 30 | 219 | 12.9 | 45.1 | 0.00 | 0.38 | 0.00 | 59 | 1008.0 |
| 20260503183052 | 30 | 219 | 12.9 | 45.1 | 0.00 | 0.38 | 0.00 | 59 | 1008.0 |
| 20260503182652 | 31 | 215 | 17.7 | 53.1 | 0.00 | 0.38 | 0.00 | 58 | 1009.0 |
| 20260503182452 | 31 | 215 | 17.7 | 53.1 | 0.00 | 0.38 | 0.00 | 58 | 1009.0 |
| 20260503182252 | 31 | 215 | 17.7 | 53.1 | 0.00 | 0.38 | 0.00 | 58 | 1009.0 |
| 20260503182052 | 31 | 215 | 17.7 | 53.1 | 0.00 | 0.38 | 0.00 | 58 | 1009.0 |
| 20260503181852 | 31 | 215 | 17.7 | 53.1 | 0.00 | 0.38 | 0.00 | 58 | 1009.0 |
| 20260503181652 | 31 | 215 | 17.7 | 53.1 | 0.00 | 0.38 | 0.00 | 58 | 1009.0 |
| 20260503181452 | 31 | 213 | 19.3 | 59.5 | 0.00 | 0.38 | 0.00 | 58 | 1009.0 |
| 20260503181252 | 31 | 213 | 19.3 | 59.5 | 0.00 | 0.38 | 0.00 | 58 | 1009.0 |
| 20260503181052 | 31 | 213 | 19.3 | 59.5 | 0.00 | 0.38 | 0.00 | 58 | 1009.0 |
| 20260503180853 | 31 | 213 | 19.3 | 59.5 | 0.00 | 0.38 | 0.00 | 58 | 1009.0 |
| 20260503174052 | 31 | 211 | 27.4 | 59.5 | 0.00 | 0.38 | 0.00 | 57 | 1009.0 |
| 20260503173852 | 31 | 211 | 27.4 | 59.5 | 0.00 | 0.38 | 0.00 | 57 | 1009.0 |
| 20260503173652 | 31 | 211 | 27.4 | 59.5 | 0.00 | 0.38 | 0.00 | 57 | 1009.0 |
| 20260503173452 | 31 | 211 | 27.4 | 59.5 | 0.00 | 0.38 | 0.00 | 57 | 1009.0 |
| 20260503173252 | 31 | 211 | 27.4 | 59.5 | 0.00 | 0.38 | 0.00 | 57 | 1009.0 |
| 20260503173052 | 31 | 211 | 27.4 | 59.5 | 0.00 | 0.38 | 0.00 | 57 | 1009.0 |
| 20260503172852 | 31 | 210 | 32.2 | 61.2 | 0.00 | 0.38 | 0.00 | 56 | 1009.0 |
| 20260503172652 | 31 | 210 | 32.2 | 61.2 | 0.00 | 0.38 | 0.00 | 56 | 1009.0 |
| 20260503172452 | 31 | 210 | 32.2 | 61.2 | 0.00 | 0.38 | 0.00 | 56 | 1009.0 |
| 20260503172253 | 31 | 210 | 32.2 | 61.2 | 0.00 | 0.38 | 0.00 | 56 | 1009.0 |
| 20260503171852 | 31 | 210 | 32.2 | 61.2 | 0.00 | 0.38 | 0.00 | 56 | 1009.0 |
| 20260503171652 | 31 | 210 | 32.2 | 61.2 | 0.00 | 0.38 | 0.00 | 56 | 1009.0 |
| 20260503171452 | 31 | 209 | 35.4 | 61.2 | 0.00 | 0.38 | 0.00 | 55 | 1009.0 |
| 20260503171252 | 31 | 209 | 35.4 | 61.2 | 0.00 | 0.38 | 0.00 | 55 | 1009.0 |
| 20260503171052 | 31 | 209 | 35.4 | 61.2 | 0.00 | 0.38 | 0.00 | 55 | 1009.0 |
| 20260503170852 | 31 | 209 | 35.4 | 61.2 | 0.00 | 0.38 | 0.00 | 55 | 1009.0 |
| 20260503170652 | 31 | 209 | 35.4 | 61.2 | 0.00 | 0.38 | 0.00 | 55 | 1009.0 |
| 20260503170452 | 31 | 209 | 35.4 | 61.2 | 0.00 | 0.38 | 0.00 | 55 | 1009.0 |
| 20260503170252 | 31 | 209 | 35.4 | 61.2 | 0.00 | 0.38 | 0.00 | 55 | 1009.0 |
| 20260503150643 | 33 | 205 | 32.2 | 104.6 | 0.00 | 0.38 | 0.00 | 46 | 1007.0 |
| 20260503150443 | 33 | 205 | 32.2 | 104.6 | 0.00 | 0.38 | 0.00 | 46 | 1007.0 |
| 20260503150243 | 33 | 205 | 32.2 | 104.6 | 0.00 | 0.38 | 0.00 | 46 | 1007.0 |
| 20260503140207 | 33 | 239 | 62.8 | 112.7 | 0.00 | 0.38 | 0.00 | 43 | 1006.0 |
| 20260503131255 | 37 | 146 | 30.6 | 59.5 | 0.00 | 0.38 | 0.00 | 28 | 1004.0 |
| 20260503131055 | 37 | 146 | 30.6 | 59.5 | 0.00 | 0.38 | 0.00 | 28 | 1004.0 |
| 20260503130855 | 37 | 146 | 30.6 | 57.9 | 0.00 | 0.38 | 0.00 | 28 | 1004.0 |
| 20260503130656 | 37 | 146 | 30.6 | 57.9 | 0.00 | 0.38 | 0.00 | 28 | 1004.0 |
| 20260503130255 | 37 | 146 | 30.6 | 57.9 | 0.00 | 0.38 | 0.00 | 28 | 1004.0 |
| 20260503110655 | 40 | 161 | 20.9 | 56.3 | 0.00 | 0.46 | 0.00 | 22 | 1003.0 |
| 20260503110456 | 40 | 161 | 20.9 | 56.3 | 0.00 | 0.46 | 0.00 | 22 | 1003.0 |
| 20260503110256 | 40 | 161 | 20.9 | 56.3 | 0.00 | 0.46 | 0.00 | 22 | 1003.0 |
| 20260503100256 | 40 | 156 | 11.3 | 57.9 | 0.00 | 0.46 | 0.00 | 23 | 1003.0 |